Location: Saint-Maurice-d�Ard�che
(44.5216°N, 4.4002°E)
Time: 10:09:00
(UTC+00:00)

Aureole 2 Rocket - Pass Details

Date: 30 March 2020
Orbit: 308 x 437 km, 73.9° (Epoch: 03 June)

Event Time Altitude Azimuth Distance (km) Brightness Sun altitude
Rises 19:40:31 0° 346° (NNW) 2,464 6.7 -16.7°
Reaches altitude 10° 19:42:43 10° 354° (N) 1,591 5.6 -17.1°
Maximum altitude 19:46:02 37° 64° (ENE) 711 3.0 -17.6°
Enters shadow 19:46:04 37° 66° (ENE) 711 3.0 -17.6°
